Tracking 19709 objects as of 18-Jun-2019
HD Live streaming from Space Station
objects crossing your sky now

CZ-4B DEB


CZ-4B DEB is no longer on orbit


NORAD ID: 33452
Int'l Code: 2008-053E
Perigee: N/A
Apogee: N/A
Inclination: N/A
Period: N/A
Semi major axis: N/A
RCS: N/A
Launch date: October 25, 2008
Source: People's Republic of China (PRC)
Launch site: Taiyaun Space Center, China (TSC)
Decay date: 2011-06-05

Note: This is SATELLITE DEBRIS
aabbcc
Your satellite tracking list
Your tracking list is empty




NASA's NSSDC Master Catalog

Two Line Element Set (TLE):
1 33452U 08053E   11156.15595251  .07101875  10451+0  15157-1 0  9999
2 33452 097.7255 216.8836 0018968 273.7528 087.9777 16.03554693142750
Source of the keplerian elements: AFSPC